,

(GMT )
Twenthe

Weather History for EHTW - July, 2013

Change the Weather History Date:

Friday, July 12, 2013

  Actual Average Record
Temperature  
Mean Temperature 52 °F -  
Max Temperature 63 °F 70 °F 84 °F (1999)
Min Temperature 41 °F 52 °F 41 °F (2013)
Degree Days  
Heating Degree Days 13    
Growing Degree Days 2 (Base 50)    
Moisture  
Dew Point 51 °F    
Average Humidity 79    
Maximum Humidity 100    
Minimum Humidity 57    
Precipitation  
Precipitation 0.00 in - - ()
Sea Level Pressure  
Sea Level Pressure 30.22 in    
Wind  
Wind Speed 2 mph ()    
Max Wind Speed 4 mph    
Max Gust Speed -    
Visibility 10.1 miles    
Events Fog    
Averages and records for this station are not official NWS values.
T = Trace of Precipitation, MM = Missing Value Source: Averaged Metar Reports

Daily Weather History Graph

Daily Weather History Graph

Search for Another Location

Airport or City:

Trip Planner

Search our weather history database for the weather conditions in past years. The results will help you decide how hot, cold, wet, or windy it might be!

Date:

Astronomy

Jul. 12, 2013 Rise Set
Actual Time 5:25 AM CEST 9:49 PM CEST
Civil Twilight 4:38 AM CEST 10:36 PM CEST
Nautical Twilight 3:27 AM CEST 11:46 PM CEST
Astronomical Twilight 2:10 AM CEST 1:05 AM CEST
Moon 10:05 AM CEST (7/12) 11:09 PM CEST (7/12)
Length of Visible Light 17h 57m
Length of Day
16h 24m
Waxing Crescent, 15% of the Moon is Illuminated
Jul 12
Waxing Crescent
Jul 16
First Quarter
Jul 22
Full
Jul 29
Last Quarter
Aug 6
New

Hourly Weather History & Observations

Time (CEST) Temp. Dew Point Humidity Pressure Visibility Wind Dir Wind Speed Gust Speed Precip Events Conditions
12:00 AM 53 °F 50 °F 84% 30.22 in 9 mi North 4.5 mph - -  
1:00 AM 50 °F 49 °F 93% 30.22 in 8 mi NNW 4.5 mph - -  
2:00 AM 47 °F 47 °F 100% 30.22 in 1 mi Calm Calm - -   Mist
3:00 AM 46 °F 46 °F 98% 30.22 in 1 mi Calm Calm - -   Mist
4:00 AM 44 °F 44 °F 99% 30.22 in 0 mi Calm Calm - - Fog Fog
5:00 AM 43 °F 42 °F 97% 30.22 in 0 mi South 2.2 mph - - Fog Fog
6:00 AM 42 °F 42 °F 100% 30.22 in 0 mi Calm Calm - - Fog Fog
7:00 AM 46 °F 46 °F 100% 30.22 in 3 mi Calm Calm - - Fog Fog
8:00 AM 51 °F 51 °F 99% 30.22 in 6 mi 2.2 mph - -   Mist
9:00 AM 56 °F 51 °F 78% 30.23 in 9 mi WSW 2.2 mph - -   Overcast
10:00 AM 59 °F 49 °F 62% 30.23 in 10 mi SW 4.5 mph - -   Overcast
11:00 AM 60 °F 49 °F 58% 30.23 in 14 mi NW 4.5 mph - -   Overcast
12:00 PM 62 °F 51 °F 57% 30.23 in 12 mi NW 4.5 mph - -   Overcast
1:00 PM 62 °F 51 °F 58% 30.23 in 13 mi NNW 4.5 mph - -   Overcast
2:00 PM 62 °F 52 °F 61% 30.23 in 14 mi WNW 4.5 mph - -   Partly Cloudy
3:00 PM 62 °F 54 °F 66% 30.22 in 12 mi WNW 4.5 mph - -   Overcast
4:00 PM 63 °F 55 °F 67% 30.22 in 17 mi NW 4.5 mph - -   Overcast
5:00 PM 63 °F 55 °F 67% 30.21 in 19 mi NW 2.2 mph - -   Overcast
6:00 PM 62 °F 55 °F 71% 30.21 in 19 mi NNW 2.2 mph - -   Overcast
7:00 PM 62 °F 54 °F 69% 30.21 in 19 mi North 4.5 mph - -   Overcast
8:00 PM 62 °F 55 °F 70% 30.20 in 17 mi North 4.5 mph - -   Partly Cloudy
9:00 PM 61 °F 55 °F 73% 30.20 in 14 mi NNW 4.5 mph - -   Overcast
10:00 PM 60 °F 55 °F 77% 30.21 in 13 mi North 2.2 mph - -   Overcast
11:00 PM 58 °F 56 °F 90% 30.21 in 12 mi NNE 2.2 mph - -   Overcast